Location: ?
(35.4064°N, 139.3593°E)
Time: 12:53:14
(UTC+00:00)

H-2A R/B - Pass Details

Date: 18 April 2024
Orbit: 732 x 833 km, 98.2° (Epoch: 17 May)

Event Time Altitude Azimuth Distance (km) Brightness Sun altitude
Rises 19:22:53 0° 8° (N) 3,215 5.7 -9.0°
Reaches altitude 10° 19:25:10 10° 6° (N) 2,300 4.8 -8.6°
Maximum altitude 19:30:11 65° 285° (WNW) 852 2.1 -7.6°
Drops below altitude 10° 19:35:19 10° 204° (SSW) 2,351 4.1 -6.7°
Sets 19:37:41 0° 202° (SSW) 3,293 4.9 -6.2°
